Greenville, TX

3:11 PM CDT on April 23, 2017 (GMT -0500)
Majors

Weather History for KGVT - February, 2014

Change the Weather History Date:

Tuesday, February 4, 2014

  Actual Average Record
Temperature  
Mean Temperature 40 °F -  
Max Temperature 42 °F 54 °F 77 °F (2008)
Min Temperature 37 °F 39 °F 21 °F (2011)
Degree Days  
Heating Degree Days 26    
Moisture  
Dew Point 36 °F    
Average Humidity 89    
Maximum Humidity 93    
Minimum Humidity 76    
Precipitation  
Precipitation 0.29 in - - ()
Sea Level Pressure  
Sea Level Pressure 29.97 in    
Wind  
Wind Speed 3 mph (South)    
Max Wind Speed 17 mph    
Max Gust Speed 23 mph    
Visibility 8 miles    
Events Rain    
Averages and records for this station are not official NWS values.
T = Trace of Precipitation, MM = Missing Value Source: NWS Daily Summary

Daily Weather History Graph

Daily Weather History Graph

Search for Another Location

Airport or City:

Trip Planner

Search our weather history database for the weather conditions in past years. The results will help you decide how hot, cold, wet, or windy it might be!

Date:

Astronomy

Feb. 04, 2014 Rise Set
Actual Time 7:17 AM CST 5:59 PM CST
Civil Twilight 6:51 AM CST 6:25 PM CST
Nautical Twilight 6:22 AM CST 6:54 PM CST
Astronomical Twilight 5:53 AM CST 7:23 PM CST
Moon 10:15 AM CST (2/4) 11:33 PM CST (2/4)
Length of Visible Light 11h 33m
Length of Day
10h 41m
Waxing Crescent, 29% of the Moon is Illuminated
Feb 4
Waxing Crescent
Feb 6
First Quarter
Feb 14
Full
Feb 22
Last Quarter
Mar 1
New

Hourly Weather History & Observations

Time (CST) Temp. Windchill Dew Point Humidity Pressure Visibility Wind Dir Wind Speed Gust Speed Precip Events Conditions
12:15 AM 37.4 °F - 35.6 °F 93% 30.05 in 10.0 mi Calm Calm - N/A   Overcast
12:35 AM 39.2 °F - 35.6 °F 87% 30.03 in 10.0 mi Calm Calm - N/A   Overcast
12:55 AM 37.4 °F - 35.6 °F 93% 30.01 in 10.0 mi Calm Calm - N/A   Overcast
1:15 AM 37.4 °F - 35.6 °F 93% 30.00 in 10.0 mi Calm Calm - N/A   Overcast
1:35 AM 37.4 °F - 35.6 °F 93% 30.00 in 10.0 mi Calm Calm - N/A   Overcast
1:55 AM 37.4 °F 34.9 °F 35.6 °F 93% 29.99 in 10.0 mi East 3.5 mph - N/A   Overcast
2:15 AM 37.4 °F - 35.6 °F 93% 29.98 in 10.0 mi Calm Calm - N/A   Overcast
2:35 AM 39.2 °F - 35.6 °F 87% 29.99 in 10.0 mi Calm Calm - N/A   Overcast
2:55 AM 37.4 °F - 35.6 °F 93% 29.98 in 10.0 mi Calm Calm - N/A   Drizzle
3:15 AM 37.4 °F - 35.6 °F 93% 29.98 in 5.0 mi Calm Calm - N/A   Heavy Drizzle
3:35 AM 37.4 °F 32.1 °F 35.6 °F 93% 29.96 in 4.0 mi East 6.9 mph - 0.01 in   Drizzle
3:55 AM 37.4 °F 32.1 °F 35.6 °F 93% 29.96 in 3.0 mi East 6.9 mph - 0.03 in Rain Rain
4:15 AM 37.4 °F 32.8 °F 35.6 °F 93% 29.95 in 4.0 mi East 5.8 mph - 0.01 in   Drizzle
4:35 AM 37.4 °F 33.8 °F 35.6 °F 93% 29.97 in 5.0 mi East 4.6 mph - 0.02 in   Drizzle
4:55 AM 37.4 °F 32.8 °F 35.6 °F 93% 29.97 in 3.0 mi ESE 5.8 mph - 0.03 in   Drizzle
5:15 AM 37.4 °F 32.8 °F 35.6 °F 93% 29.97 in 3.0 mi SE 5.8 mph - 0.01 in   Light Drizzle
5:35 AM 37.4 °F 33.8 °F 35.6 °F 93% 29.98 in 4.0 mi ESE 4.6 mph - 0.02 in   Drizzle
5:55 AM 37.4 °F 33.8 °F 35.6 °F 93% 29.97 in 4.0 mi ESE 4.6 mph - 0.03 in   Light Drizzle
6:15 AM 37.4 °F 33.8 °F 35.6 °F 93% 29.97 in 3.0 mi ESE 4.6 mph - 0.01 in Rain Light Rain
6:35 AM 37.4 °F 34.9 °F 35.6 °F 93% 29.96 in 3.0 mi East 3.5 mph - 0.04 in Rain Rain
6:55 AM 37.4 °F - 35.6 °F 93% 29.96 in 3.0 mi Calm Calm - 0.10 in Rain Rain
7:15 AM 37.4 °F - 35.6 °F 93% 29.97 in 5.0 mi Calm Calm - N/A   Drizzle
7:35 AM 37.4 °F 33.8 °F 35.6 °F 93% 29.97 in 4.0 mi SE 4.6 mph - 0.01 in Rain Rain
7:55 AM 37.4 °F 33.8 °F 35.6 °F 93% 29.96 in 4.0 mi ESE 4.6 mph - 0.02 in   Drizzle
8:15 AM 37.4 °F 33.8 °F 35.6 °F 93% 29.96 in 5.0 mi ESE 4.6 mph - 0.01 in Rain Rain
8:35 AM 37.4 °F 32.8 °F 35.6 °F 93% 29.96 in 2.5 mi SE 5.8 mph - 0.02 in Rain Light Rain
8:55 AM 37.4 °F 32.8 °F 35.6 °F 93% 29.96 in 4.0 mi ESE 5.8 mph - 0.04 in Rain Light Rain
9:15 AM 37.4 °F 30.8 °F 35.6 °F 93% 29.96 in 4.0 mi SE 9.2 mph - 0.02 in Rain Rain
9:35 AM 37.4 °F 31.4 °F 35.6 °F 93% 29.95 in 7.0 mi SE 8.1 mph - 0.04 in Rain Rain
9:55 AM 37.4 °F 32.1 °F 35.6 °F 93% 29.96 in 10.0 mi SE 6.9 mph - 0.04 in   Unknown
10:15 AM 37.4 °F 32.1 °F 35.6 °F 93% 29.96 in 10.0 mi SE 6.9 mph - N/A   Unknown
10:35 AM 37.4 °F 32.1 °F 35.6 °F 93% 29.95 in 10.0 mi SE 6.9 mph - N/A   Unknown
10:55 AM 37.4 °F 32.1 °F 35.6 °F 93% 29.94 in 10.0 mi SE 6.9 mph - N/A   Unknown
11:15 AM 39.2 °F 35.9 °F 37.4 °F 93% 29.93 in 10.0 mi SE 4.6 mph - N/A   Overcast
11:35 AM 39.2 °F 35.9 °F 37.4 °F 93% 29.93 in 10.0 mi SE 4.6 mph - N/A   Overcast
11:55 AM 39.2 °F 37.0 °F 37.4 °F 93% 29.94 in 10.0 mi South 3.5 mph - N/A   Overcast
12:15 PM 39.2 °F 35.9 °F 37.4 °F 93% 29.92 in 10.0 mi SSE 4.6 mph - N/A   Overcast
12:35 PM 39.2 °F - 37.4 °F 93% 29.91 in 10.0 mi Calm Calm - N/A   Overcast
12:55 PM 39.2 °F - 37.4 °F 93% 29.91 in 10.0 mi Calm Calm - N/A   Overcast
1:15 PM 41.0 °F 39.0 °F 37.4 °F 87% 29.91 in 10.0 mi SW 3.5 mph - N/A   Overcast
1:35 PM 41.0 °F - 37.4 °F 87% 29.89 in 7.0 mi Calm Calm - N/A   Overcast
1:55 PM 41.0 °F 39.0 °F 37.4 °F 87% 29.89 in 2.5 mi West 3.5 mph - N/A   Overcast
2:15 PM 41.0 °F - 37.4 °F 87% 29.89 in 3.0 mi Calm Calm - N/A   Overcast
2:35 PM 41.0 °F - 39.2 °F 93% 29.89 in 2.5 mi Calm Calm - N/A   Overcast
2:55 PM 42.8 °F 41.1 °F 41.0 °F 93% 29.89 in 5.0 mi WSW 3.5 mph - N/A   Overcast
3:15 PM 42.8 °F 40.1 °F 39.2 °F 87% 29.89 in 7.0 mi West 4.6 mph - N/A   Overcast
3:35 PM 42.8 °F 40.1 °F 39.2 °F 87% 29.89 in 5.0 mi WSW 4.6 mph - N/A   Overcast
3:55 PM 42.8 °F 41.1 °F 39.2 °F 87% 29.89 in 7.0 mi West 3.5 mph - N/A   Overcast
4:15 PM 42.8 °F 41.1 °F 39.2 °F 87% 29.89 in 7.0 mi WSW 3.5 mph - N/A   Overcast
4:35 PM 42.8 °F - 39.2 °F 87% 29.91 in 7.0 mi Calm Calm - N/A   Overcast
4:55 PM 42.8 °F 41.1 °F 41.0 °F 93% 29.91 in 7.0 mi West 3.5 mph - N/A   Overcast
5:15 PM 42.8 °F 40.1 °F 39.2 °F 87% 29.92 in 10.0 mi WNW 4.6 mph - N/A   Overcast
5:35 PM 42.8 °F 41.1 °F 39.2 °F 87% 29.92 in 10.0 mi WNW 3.5 mph - N/A   Overcast
6:15 PM 42.8 °F 41.1 °F 37.4 °F 81% 29.94 in 10.0 mi NW 3.5 mph - N/A   Overcast
6:35 PM 42.8 °F - 37.4 °F 81% 29.95 in 10.0 mi Calm Calm - N/A   Overcast
6:55 PM 42.8 °F - 37.4 °F 81% 29.97 in 10.0 mi Calm Calm - N/A   Overcast
7:15 PM 42.8 °F 41.1 °F 37.4 °F 81% 29.99 in 10.0 mi West 3.5 mph - N/A   Overcast
7:35 PM 42.8 °F 41.1 °F 37.4 °F 81% 29.99 in 10.0 mi WNW 3.5 mph - N/A   Overcast
7:55 PM 42.8 °F 41.1 °F 37.4 °F 81% 30.00 in 10.0 mi West 3.5 mph - N/A   Overcast
8:15 PM 42.8 °F 38.6 °F 37.4 °F 81% 30.01 in 10.0 mi WNW 6.9 mph - N/A   Overcast
8:35 PM 42.8 °F 41.1 °F 35.6 °F 76% 30.01 in 10.0 mi West 3.5 mph - N/A   Scattered Clouds
8:55 PM 41.0 °F - 35.6 °F 81% 30.02 in 10.0 mi Calm Calm - N/A   Clear
9:15 PM 39.2 °F 37.0 °F 35.6 °F 87% 30.04 in 10.0 mi West 3.5 mph - N/A   Clear
9:35 PM 39.2 °F 37.0 °F 35.6 °F 87% 30.05 in 10.0 mi West 3.5 mph - N/A   Clear
9:55 PM 37.4 °F 33.8 °F 33.8 °F 87% 30.04 in 10.0 mi WNW 4.6 mph - N/A   Scattered Clouds
10:15 PM 41.0 °F 34.7 °F 35.6 °F 81% 30.06 in 10.0 mi NW 10.4 mph - N/A   Overcast
10:35 PM 41.0 °F 34.7 °F 35.6 °F 81% 30.07 in 10.0 mi NW 10.4 mph 16.1 mph N/A   Overcast
10:55 PM 41.0 °F 32.5 °F 35.6 °F 81% 30.08 in 10.0 mi NW 17.3 mph 23.0 mph N/A   Overcast
11:15 PM 39.2 °F 32.5 °F 33.8 °F 81% 30.09 in 10.0 mi NW 10.4 mph - N/A   Overcast
11:35 PM 37.4 °F 32.8 °F 32.0 °F 81% 30.10 in 10.0 mi NW 5.8 mph - N/A   Mostly Cloudy
11:55 PM 37.4 °F 33.8 °F 32.0 °F 81% 30.12 in 10.0 mi WNW 4.6 mph - N/A   Mostly Cloudy